Location: Miami, Florida
(25.6830°N, 80.1700°W)
Time: 04:20:38
(UTC-04:00)

Tiangong 2 - Pass Details

Date: 15 November 2017
Orbit: 386 x 392 km, 42.8° (Epoch: 20 November)

Event Time Altitude Azimuth Distance (km) Brightness Sun altitude
Rises 19:35:55 0° 297° (WNW) 2,266 5.8 -14.6°
Reaches altitude 10° 19:38:06 10° 288° (WNW) 1,409 4.8 -15.1°
Maximum altitude 19:41:01 34° 221° (SW) 660 2.7 -15.7°
Drops below altitude 10° 19:43:55 10° 154° (SSE) 1,401 3.8 -16.4°
Enters shadow 19:44:22 - 152° (SSE) 1,572 4.0 -16.5°
